TimeEST,TemperatureF,Dew PointF,Humidity,Sea Level PressureIn,VisibilityMPH,Wind Direction,Wind SpeedMPH,Gust SpeedMPH,PrecipitationIn,Events,Conditions,WindDirDegrees,DateUTC
12:52 AM,46.0,44.1,93,29.59,10.0,NE,9.2,-,0.00,,Light Drizzle,50,2013-02-27 05:52:00
1:52 AM,46.0,44.1,93,29.56,6.0,NE,10.4,-,0.00,,Light Drizzle,40,2013-02-27 06:52:00
2:52 AM,46.0,44.1,93,29.54,5.0,NNE,6.9,-,0.00,,Light Drizzle,20,2013-02-27 07:52:00
3:52 AM,45.0,44.1,97,29.53,3.0,NNW,6.9,-,0.00,,Light Drizzle,340,2013-02-27 08:52:00
4:27 AM,44.6,42.8,93,29.54,4.0,NW,6.9,-,0.00,,Light Drizzle,320,2013-02-27 09:27:00
4:52 AM,45.0,43.0,93,29.54,3.0,NW,9.2,-,0.00,,Light Drizzle,320,2013-02-27 09:52:00
5:52 AM,43.0,39.9,89,29.55,7.0,NNW,11.5,-,0.01,,Overcast,330,2013-02-27 10:52:00
6:52 AM,42.1,39.0,89,29.59,6.0,WNW,11.5,20.7,N/A,,Overcast,300,2013-02-27 11:52:00
7:29 AM,42.8,37.4,81,29.60,10.0,WNW,9.2,-,N/A,,Overcast,290,2013-02-27 12:29:00
7:52 AM,42.1,37.9,85,29.62,10.0,WNW,5.8,-,N/A,,Overcast,300,2013-02-27 12:52:00
8:22 AM,42.8,37.4,81,29.64,10.0,NW,8.1,-,N/A,,Overcast,310,2013-02-27 13:22:00
8:52 AM,44.1,37.9,79,29.65,10.0,Variable,4.6,-,N/A,,Mostly Cloudy,0,2013-02-27 13:52:00
9:04 AM,44.6,37.4,76,29.65,10.0,WNW,8.1,-,N/A,,Mostly Cloudy,290,2013-02-27 14:04:00
9:52 AM,48.0,39.0,71,29.66,10.0,West,11.5,-,N/A,,Mostly Cloudy,260,2013-02-27 14:52:00
10:10 AM,48.2,39.2,71,29.66,10.0,West,11.5,18.4,N/A,,Scattered Clouds,270,2013-02-27 15:10:00
10:52 AM,51.1,39.0,63,29.66,10.0,WNW,8.1,-,N/A,,Scattered Clouds,300,2013-02-27 15:52:00
11:52 AM,54.0,37.9,55,29.66,10.0,WNW,9.2,-,N/A,,Scattered Clouds,290,2013-02-27 16:52:00
12:52 PM,54.0,37.0,53,29.64,10.0,WSW,8.1,-,N/A,,Mostly Cloudy,240,2013-02-27 17:52:00
1:52 PM,55.9,37.0,49,29.64,10.0,WSW,6.9,-,N/A,,Mostly Cloudy,240,2013-02-27 18:52:00
2:52 PM,57.0,35.1,44,29.64,10.0,Variable,6.9,-,N/A,,Overcast,0,2013-02-27 19:52:00
3:52 PM,55.9,34.0,44,29.64,10.0,WNW,6.9,-,N/A,,Overcast,300,2013-02-27 20:52:00
4:52 PM,55.9,32.0,40,29.65,10.0,WNW,8.1,-,N/A,,Overcast,300,2013-02-27 21:52:00
5:52 PM,53.1,32.0,45,29.67,10.0,NW,11.5,-,N/A,,Overcast,320,2013-02-27 22:52:00
6:52 PM,52.0,30.9,45,29.70,10.0,NNW,8.1,-,N/A,,Overcast,340,2013-02-27 23:52:00
7:52 PM,51.1,30.0,44,29.70,10.0,NNW,9.2,-,N/A,,Overcast,330,2013-02-28 00:52:00
8:52 PM,51.1,30.0,44,29.71,10.0,West,4.6,-,N/A,,Overcast,270,2013-02-28 01:52:00
9:52 PM,50.0,30.0,46,29.70,10.0,WSW,3.5,-,N/A,,Mostly Cloudy,250,2013-02-28 02:52:00
10:52 PM,45.0,35.1,68,29.68,10.0,South,4.6,-,N/A,,Mostly Cloudy,170,2013-02-28 03:52:00
11:52 PM,45.0,35.1,68,29.66,10.0,South,4.6,-,N/A,,Overcast,190,2013-02-28 04:52:00